Weather History for Savannah Hunter, GA

Change the Weather History Date:

Wednesday, November 28, 2012

  Actual Average Record
Temperature  
Mean Temperature 47 °F -  
Max Temperature 53 °F 65 °F 80 °F (2001)
Min Temperature 39 °F 44 °F 29 °F (2013)
Degree Days  
Heating Degree Days 18    
Moisture  
Dew Point 47 °F    
Average Humidity 96    
Maximum Humidity 100    
Minimum Humidity 77    
Precipitation  
Precipitation 0.00 in - - ()
Sea Level Pressure  
Sea Level Pressure 30.29 in    
Wind  
Wind Speed 4 mph (NNW)    
Max Wind Speed 10 mph    
Max Gust Speed -    
Visibility 4 miles    
Events Fog    
Averages and records for this station are not official NWS values.
T = Trace of Precipitation, MM = Missing Value Source: NWS Daily Summary

Daily Weather History Graph

Daily Weather History Graph

Search for Another Location

Airport:

Trip Planner

Search our weather history database for the weather conditions in past years. The results will help you decide how hot, cold, wet, or windy it might be!

Date:

Astronomy

Nov. 28, 2012 Rise Set
Actual Time 7:05 AM EST 5:20 PM EST
Civil Twilight 6:38 AM EST 5:46 PM EST
Nautical Twilight 6:08 AM EST 6:16 PM EST
Astronomical Twilight 5:39 AM EST 6:46 PM EST
Moon 5:34 PM EST (11/28) 7:01 AM EST (11/28)
Length of Visible Light 11h 08m
Length of Day
10h 15m
Full, 100% of the Moon is Illuminated
Nov 28
Full
Dec 6
Last Quarter
Dec 13
New
Dec 20
First Quarter
Dec 28
Full

Hourly Weather History & Observations

Time (EST) Temp. Dew Point Humidity Pressure Visibility Wind Dir Wind Speed Gust Speed Precip Events Conditions
12:05 AM 50.0 °F 50.0 °F 100% 30.15 in 4.0 mi West 4.6 mph - N/A   Clear
12:17 AM 50.0 °F 50.0 °F 100% 30.17 in 0.5 mi West 6.9 mph - N/A Fog Fog
12:28 AM 50.0 °F 50.0 °F 100% 30.17 in 0.5 mi West 4.6 mph - N/A Fog Fog
12:29 AM 50.0 °F 50.0 °F 100% 30.17 in 0.5 mi WNW 4.6 mph - N/A Fog Fog
12:30 AM 51.8 °F 50.0 °F 94% 30.17 in 0.8 mi WNW 3.5 mph - N/A   Mostly Cloudy
12:33 AM 51.8 °F 50.0 °F 94% 30.17 in 1.0 mi NW 3.5 mph - N/A   Mostly Cloudy
12:34 AM 51.8 °F 51.8 °F 100% 30.17 in 1.2 mi Calm Calm - N/A   Mostly Cloudy
12:35 AM 51.8 °F 51.8 °F 100% 30.17 in 1.5 mi Calm Calm - N/A   Mostly Cloudy
12:36 AM 51.8 °F 51.8 °F 100% 30.17 in 1.8 mi WNW 3.5 mph - N/A   Mostly Cloudy
12:37 AM 51.8 °F 51.8 °F 100% 30.17 in 2.0 mi NW 3.5 mph - N/A   Mostly Cloudy
12:38 AM 51.8 °F 51.8 °F 100% 30.17 in 3.0 mi NW 3.5 mph - N/A   Mostly Cloudy
12:55 AM 52.5 °F 52.2 °F 99% 30.17 in 7.0 mi Calm Calm - N/A   Overcast
1:06 AM 51.8 °F 51.8 °F 100% 30.17 in 6.0 mi Calm Calm - N/A   Overcast
1:23 AM 51.8 °F 51.8 °F 100% 30.17 in 7.0 mi West 3.5 mph - N/A   Overcast
1:28 AM 53.6 °F 51.8 °F 94% 30.17 in 9.0 mi WNW 3.5 mph - N/A   Overcast
1:38 AM 53.6 °F 51.8 °F 94% 30.17 in 10.0 mi NW 4.6 mph - N/A   Overcast
1:55 AM 53.1 °F 52.5 °F 98% 30.16 in 10.0 mi NW 6.9 mph - N/A   Overcast
2:13 AM 53.6 °F 51.8 °F 94% 30.17 in 8.0 mi NNW 5.8 mph - N/A   Overcast
2:19 AM 53.6 °F 51.8 °F 94% 30.17 in 9.0 mi North 5.8 mph - N/A   Overcast
2:27 AM 53.6 °F 51.8 °F 94% 30.17 in 10.0 mi NNW 9.2 mph - N/A   Overcast
2:37 AM 53.6 °F 51.8 °F 94% 30.17 in 8.0 mi NNW 6.9 mph - N/A   Overcast
2:52 AM 53.6 °F 51.8 °F 94% 30.17 in 6.0 mi NNW 5.8 mph - N/A   Overcast
2:55 AM 53.1 °F 52.3 °F 97% 30.17 in 6.0 mi NNW 6.9 mph - N/A   Overcast
3:34 AM 53.6 °F 51.8 °F 94% 30.18 in 5.0 mi North 6.9 mph - N/A   Overcast
3:38 AM 53.6 °F 51.8 °F 94% 30.18 in 4.0 mi NNW 6.9 mph - N/A   Overcast
3:40 AM 53.6 °F 51.8 °F 94% 30.18 in 4.0 mi North 6.9 mph - N/A   Overcast
3:55 AM 52.5 °F 52.0 °F 98% 30.19 in 4.0 mi North 10.4 mph - N/A   Overcast
4:11 AM 51.8 °F 51.8 °F 100% 30.19 in 6.0 mi North 10.4 mph - N/A   Overcast
4:32 AM 51.8 °F 51.8 °F 100% 30.19 in 6.0 mi NNW 9.2 mph - N/A   Overcast
4:34 AM 51.8 °F 51.8 °F 100% 30.19 in 6.0 mi NNW 8.1 mph - N/A   Overcast
4:38 AM 51.8 °F 51.8 °F 100% 30.19 in 6.0 mi NNW 9.2 mph - N/A   Overcast
4:52 AM 51.8 °F 51.8 °F 100% 30.19 in 8.0 mi North 6.9 mph - N/A   Overcast
4:53 AM 51.8 °F 51.8 °F 100% 30.19 in 9.0 mi North 6.9 mph - N/A   Overcast
4:55 AM 52.3 °F 51.4 °F 97% 30.19 in 9.0 mi North 6.9 mph - N/A   Overcast
5:04 AM 51.8 °F 51.8 °F 100% 30.19 in 8.0 mi Variable 5.8 mph - N/A   Overcast
5:12 AM 51.8 °F 51.8 °F 100% 30.19 in 8.0 mi NNW 6.9 mph - N/A   Overcast
5:20 AM 51.8 °F 51.8 °F 100% 30.19 in 8.0 mi NNW 4.6 mph - N/A   Overcast
5:37 AM 51.8 °F 51.8 °F 100% 30.20 in 8.0 mi NW 6.9 mph - N/A   Overcast
5:41 AM 51.8 °F 50.0 °F 94% 30.20 in 9.0 mi NNW 6.9 mph - N/A   Overcast
5:46 AM 51.8 °F 50.0 °F 94% 30.21 in 9.0 mi NW 8.1 mph - N/A   Overcast
5:48 AM 51.8 °F 50.0 °F 94% 30.21 in 10.0 mi NNW 6.9 mph - N/A   Overcast
5:55 AM 52.0 °F 50.9 °F 96% 30.21 in 9.0 mi NNW 6.9 mph - N/A   Overcast
5:57 AM 51.8 °F 50.0 °F 94% 30.21 in 9.0 mi NNW 5.8 mph - N/A   Overcast
5:58 AM 51.8 °F 50.0 °F 94% 30.21 in 8.0 mi NNW 5.8 mph - N/A   Overcast
6:19 AM 51.8 °F 51.8 °F 100% 30.21 in 8.0 mi NNW 6.9 mph - N/A   Overcast
6:26 AM 51.8 °F 51.8 °F 100% 30.21 in 9.0 mi NNW 6.9 mph - N/A   Overcast
6:55 AM 52.5 °F 51.1 °F 95% 30.23 in 10.0 mi NNW 4.6 mph - N/A   Overcast
6:56 AM 51.8 °F 51.8 °F 100% 30.23 in 10.0 mi NNW 4.6 mph - N/A   Overcast
7:03 AM 51.8 °F 50.0 °F 94% 30.24 in 10.0 mi NNW 6.9 mph - N/A   Overcast
7:12 AM 53.6 °F 50.0 °F 88% 30.24 in 10.0 mi NNW 9.2 mph - N/A   Overcast
7:58 AM 51.8 °F 50.0 °F 94% 30.27 in 10.0 mi North 8.1 mph - N/A   Overcast
8:23 AM 51.8 °F 50.0 °F 94% 30.28 in 10.0 mi North 5.8 mph - N/A   Overcast
8:41 AM 51.8 °F 50.0 °F 94% 30.29 in 10.0 mi NNE 4.6 mph - N/A   Overcast
8:55 AM 52.3 °F 50.2 °F 92% 30.29 in 10.0 mi NNE 5.8 mph - N/A   Overcast
9:22 AM 51.8 °F 50.0 °F 94% 30.29 in 2.0 mi North 5.8 mph - N/A   Overcast
9:35 AM 51.8 °F 51.8 °F 100% 30.31 in 5.0 mi NNE 3.5 mph - N/A   Overcast
9:43 AM 51.8 °F 51.8 °F 100% 30.31 in 4.0 mi NNE 5.8 mph - N/A   Light Drizzle
9:49 AM 51.8 °F 51.8 °F 100% 30.31 in 5.0 mi NNE 5.8 mph - N/A   Light Drizzle
9:50 AM 51.8 °F 51.8 °F 100% 30.31 in 5.0 mi NNE 6.9 mph - N/A   Light Drizzle
9:52 AM 51.8 °F 51.8 °F 100% 30.31 in 6.0 mi NNE 5.8 mph - N/A   Overcast
9:55 AM 52.5 °F 51.1 °F 95% 30.31 in 6.0 mi NNE 6.9 mph - 0.00 in   Overcast
10:05 AM 51.8 °F 51.8 °F 100% 30.30 in 3.0 mi NNE 6.9 mph - N/A   Overcast
10:59 AM 51.8 °F 50.0 °F 94% 30.32 in 4.0 mi NNE 6.9 mph - N/A   Overcast
11:59 AM 53.6 °F 50.0 °F 88% 30.32 in 5.0 mi NNE 6.9 mph - N/A   Overcast
12:59 PM 53.6 °F 50.0 °F 88% 30.31 in 6.0 mi NNE 9.2 mph - N/A   Overcast
1:29 PM 53.6 °F 48.2 °F 82% 30.30 in 10.0 mi North 9.2 mph - N/A   Overcast
1:55 PM 52.7 °F 48.4 °F 85% 30.30 in 10.0 mi NE 8.1 mph - N/A   Overcast
1:58 PM 51.8 °F 48.2 °F 88% 30.30 in 10.0 mi NE 8.1 mph - N/A   Overcast
1:59 PM 51.8 °F 48.2 °F 88% 30.30 in 10.0 mi NE 6.9 mph - N/A   Overcast
2:13 PM 51.8 °F 48.2 °F 88% 30.30 in 10.0 mi NNE 6.9 mph - N/A   Overcast
2:55 PM 52.5 °F 47.3 °F 82% 30.28 in 10.0 mi NNE 6.9 mph - N/A   Overcast
3:28 PM 53.6 °F 46.4 °F 77% 30.28 in 10.0 mi NE 3.5 mph - N/A   Mostly Cloudy
3:55 PM 53.6 °F 46.4 °F 77% 30.29 in 10.0 mi Calm Calm - N/A   Overcast
4:55 PM 53.4 °F 46.9 °F 79% 30.30 in 10.0 mi WSW 3.5 mph - N/A   Overcast
5:05 PM 53.6 °F 46.4 °F 77% 30.30 in 10.0 mi SW 4.6 mph - N/A   Overcast
5:55 PM 52.2 °F 47.1 °F 83% 30.31 in 10.0 mi WSW 3.5 mph - N/A   Overcast
6:55 PM 51.4 °F 47.7 °F 87% 30.33 in 10.0 mi Calm Calm - N/A   Overcast
7:55 PM 46.6 °F 45.1 °F 95% 30.35 in 10.0 mi Calm Calm - N/A   Clear
8:44 PM 46.4 °F 44.6 °F 93% 30.35 in 2.5 mi Calm Calm - N/A   Clear
8:53 PM 46.4 °F 44.6 °F 93% 30.35 in 4.0 mi Calm Calm - N/A   Clear
8:55 PM 46.2 °F 45.5 °F 97% 30.35 in 5.0 mi Calm Calm - N/A   Clear
9:00 PM 46.4 °F 44.6 °F 93% 30.35 in 2.0 mi Calm Calm - N/A   Clear
9:01 PM 46.4 °F 44.6 °F 93% 30.36 in 1.2 mi Calm Calm - N/A   Clear
9:02 PM 46.4 °F 44.6 °F 93% 30.36 in 1.0 mi Calm Calm - N/A   Clear
9:03 PM 44.6 °F 44.6 °F 100% 30.36 in 0.8 mi Calm Calm - N/A   Clear
9:08 PM 44.6 °F 42.8 °F 93% 30.36 in 0.8 mi Calm Calm - N/A   Clear
9:11 PM 44.6 °F 42.8 °F 93% 30.36 in 1.0 mi Calm Calm - N/A   Clear
9:13 PM 44.6 °F 42.8 °F 93% 30.36 in 0.8 mi Calm Calm - N/A   Clear
9:15 PM 44.6 °F 42.8 °F 93% 30.36 in 0.8 mi Calm Calm - N/A   Clear
9:20 PM 42.8 °F 42.8 °F 100% 30.36 in 0.5 mi Calm Calm - N/A Fog Fog
9:23 PM 42.8 °F 42.8 °F 100% 30.36 in 0.8 mi Calm Calm - N/A   Clear
9:43 PM 42.8 °F 42.8 °F 100% 30.37 in 0.5 mi Calm Calm - N/A Fog Fog
9:44 PM 42.8 °F 42.8 °F 100% 30.37 in 0.5 mi Calm Calm - N/A Fog Fog
9:45 PM 42.8 °F 42.8 °F 100% 30.37 in 0.8 mi Calm Calm - N/A   Clear
9:48 PM 42.8 °F 42.8 °F 100% 30.37 in 1.0 mi Calm Calm - N/A   Clear
9:49 PM 42.8 °F 42.8 °F 100% 30.37 in 1.5 mi Calm Calm - N/A   Clear
9:50 PM 42.8 °F 42.8 °F 100% 30.37 in 1.8 mi Calm Calm - N/A   Clear
9:51 PM 42.8 °F 42.8 °F 100% 30.37 in 1.5 mi Calm Calm - N/A   Clear
9:52 PM 42.8 °F 42.8 °F 100% 30.37 in 1.2 mi Calm Calm - N/A   Clear
9:53 PM 42.8 °F 42.8 °F 100% 30.37 in 1.0 mi Calm Calm - N/A   Clear
9:54 PM 42.8 °F 42.8 °F 100% 30.37 in 0.8 mi Calm Calm - N/A   Clear
9:55 PM 42.6 °F 42.1 °F 98% 30.37 in 0.8 mi Calm Calm - N/A   Clear
9:56 PM 42.8 °F 42.8 °F 100% 30.37 in 0.5 mi Calm Calm - N/A Fog Fog
9:58 PM 42.8 °F 41.0 °F 93% 30.37 in 0.5 mi Calm Calm - N/A Fog Fog
9:59 PM 42.8 °F 41.0 °F 93% 30.37 in 0.5 mi Calm Calm - N/A Fog Fog
10:00 PM 42.8 °F 41.0 °F 93% 30.37 in 0.5 mi Calm Calm - N/A Fog Fog
10:08 PM 41.0 °F 39.2 °F 93% 30.37 in 0.5 mi Calm Calm - N/A Fog Fog
10:15 PM 41.0 °F 41.0 °F 100% 30.37 in 0.5 mi Calm Calm - N/A Fog Fog
10:17 PM 41.0 °F 41.0 °F 100% 30.37 in 0.8 mi Calm Calm - N/A   Clear
10:19 PM 41.0 °F 41.0 °F 100% 30.37 in 0.8 mi Calm Calm - N/A   Clear
10:21 PM 41.0 °F 41.0 °F 100% 30.37 in 1.0 mi Calm Calm - N/A   Clear
10:24 PM 42.8 °F 41.0 °F 93% 30.37 in 1.2 mi Calm Calm - N/A   Clear
10:26 PM 42.8 °F 42.8 °F 100% 30.37 in 1.5 mi Calm Calm - N/A   Clear
10:27 PM 42.8 °F 42.8 °F 100% 30.37 in 1.8 mi Calm Calm - N/A   Clear
10:29 PM 42.8 °F 42.8 °F 100% 30.37 in 1.5 mi Calm Calm - N/A   Clear
10:30 PM 42.8 °F 42.8 °F 100% 30.37 in 1.2 mi Calm Calm - N/A   Clear
10:32 PM 42.8 °F 42.8 °F 100% 30.37 in 1.0 mi Calm Calm - N/A   Clear
10:35 PM 42.8 °F 42.8 °F 100% 30.37 in 0.8 mi Calm Calm - N/A   Clear
10:37 PM 42.8 °F 42.8 °F 100% 30.37 in 0.5 mi Calm Calm - N/A Fog Fog
10:44 PM 42.8 °F 41.0 °F 93% 30.37 in 0.2 mi Calm Calm - N/A Fog Fog
10:50 PM 42.8 °F 42.8 °F 100% 30.37 in 0.2 mi Calm Calm - N/A Fog Fog
10:51 PM 42.8 °F 42.8 °F 100% 30.37 in 0.5 mi Calm Calm - N/A Fog Fog
10:55 PM 42.3 °F 41.9 °F 99% 30.37 in 0.5 mi Calm Calm - N/A Fog Fog
11:01 PM 42.8 °F 41.0 °F 93% 30.37 in 0.2 mi Calm Calm - N/A Fog Fog
11:02 PM 42.8 °F 41.0 °F 93% 30.37 in 0.2 mi Calm Calm - N/A Fog Fog
11:05 PM 42.8 °F 41.0 °F 93% 30.37 in 0.5 mi Calm Calm - N/A Fog Fog
11:11 PM 42.8 °F 42.8 °F 100% 30.38 in 0.5 mi Calm Calm - N/A Fog Fog
11:23 PM 41.0 °F 41.0 °F 100% 30.38 in 0.8 mi Calm Calm - N/A   Clear
11:25 PM 41.0 °F 41.0 °F 100% 30.38 in 0.5 mi Calm Calm - N/A Fog Fog
11:29 PM 41.0 °F 41.0 °F 100% 30.37 in 0.8 mi Calm Calm - N/A   Clear
11:31 PM 41.0 °F 41.0 °F 100% 30.37 in 0.5 mi Calm Calm - N/A Fog Fog
11:35 PM 41.0 °F 41.0 °F 100% 30.37 in 0.8 mi Calm Calm - N/A   Clear
11:37 PM 41.0 °F 41.0 °F 100% 30.37 in 0.5 mi Calm Calm - N/A Fog Fog
11:40 PM 42.8 °F 42.8 °F 100% 30.37 in 0.5 mi Calm Calm - N/A Fog Fog
11:51 PM 41.0 °F 39.2 °F 93% 30.37 in 0.5 mi Calm Calm - N/A Fog Fog
11:55 PM 39.9 °F 39.4 °F 98% 30.37 in 0.5 mi Calm Calm - N/A Fog Fog